PST,Max TemperatureF,Mean TemperatureF,Min TemperatureF,Max Dew PointF,MeanDew PointF,Min DewpointF,Max Humidity, Mean Humidity, Min Humidity, Max Sea Level PressureIn, Mean Sea Level PressureIn, Min Sea Level PressureIn, Max VisibilityMiles, Mean VisibilityMiles, Min VisibilityMiles, Max Wind SpeedMPH, Mean Wind SpeedMPH, Max Gust SpeedMPH,PrecipitationIn, CloudCover, Events, WindDirDegrees
2011-12-1,40,32,24,26,23,19,85,68,50,30.79,30.61,30.23,10,10,10,10,3,13,0.00,0,,358
2011-12-2,40,29,17,24,21,18,75,49,29,30.45,30.36,30.23,10,10,10,15,9,,0.00,1,,303
2011-12-3,41,34,26,24,21,19,78,60,41,30.43,30.38,30.31,10,10,10,14,4,17,0.00,0,,242
2011-12-4,47,37,27,28,24,20,85,64,42,30.58,30.53,30.40,10,10,10,16,5,17,0.00,0,,290
2011-12-5,36,28,19,25,22,19,88,73,57,30.56,30.49,30.44,10,10,10,6,2,,0.00,0,,74
2011-12-6,38,27,15,26,22,18,100,86,70,30.45,30.37,30.32,10,6,0,5,1,,0.00,1,Fog,49
2011-12-7,37,25,13,27,23,19,92,84,70,30.45,30.42,30.38,10,10,6,7,1,,0.00,0,,288
2011-12-8,29,25,20,27,24,18,100,92,84,30.49,30.44,30.40,10,5,0,7,2,8,0.00,4,Fog,332
2011-12-9,24,21,18,25,23,19,100,93,84,30.55,30.47,30.38,9,4,0,5,1,,T,8,Fog,62
2011-12-10,26,25,23,22,20,19,96,89,81,30.35,30.19,30.11,10,8,2,10,3,13,T,8,Snow,77
2011-12-11,24,21,18,22,21,18,96,88,80,30.22,30.13,30.07,9,6,1,7,2,,T,7,Snow,325
2011-12-12,32,25,17,22,19,15,100,82,63,30.32,30.24,30.17,10,7,1,12,4,16,0.00,4,,330
2011-12-13,25,24,22,20,19,16,93,84,74,30.23,30.17,30.09,10,9,5,8,3,,T,7,,100
2011-12-14,27,25,22,22,19,15,93,80,72,30.31,30.24,30.17,10,9,6,7,1,,T,8,Snow,296
2011-12-15,28,25,22,25,22,19,88,80,61,30.51,30.38,30.21,10,10,8,7,4,,0.02,3,,86
2011-12-16,32,30,27,26,25,24,85,82,78,30.57,30.53,30.48,8,7,6,9,1,10,T,8,,143
2011-12-17,31,30,29,27,26,25,92,85,78,30.49,30.35,30.11,10,9,6,5,0,7,T,8,,293
2011-12-18,36,31,26,29,27,25,92,84,75,30.42,30.23,30.06,10,10,8,7,1,9,0.00,5,,338
2011-12-19,30,27,23,27,24,21,100,93,85,30.48,30.41,30.37,10,5,0,13,4,20,0.00,7,Fog,111
2011-12-20,39,31,23,27,25,22,100,80,59,30.35,30.18,30.08,10,5,0,23,4,28,T,5,Fog-Snow,60
2011-12-21,43,33,23,26,22,17,78,65,51,30.57,30.44,30.26,10,10,10,15,4,16,0.00,0,,272
2011-12-22,25,17,9,19,17,12,88,76,61,30.63,30.57,30.49,10,10,10,5,2,,0.00,2,,332
2011-12-23,30,24,18,22,18,14,91,77,63,30.65,30.58,30.50,10,10,10,13,2,14,0.00,2,,115
2011-12-24,29,25,20,22,20,18,92,84,75,30.63,30.58,30.49,10,10,9,6,1,7,0.00,1,,300
2011-12-25,39,32,25,26,23,22,88,74,59,30.45,30.21,30.05,10,10,10,15,3,24,T,1,,72
2011-12-26,38,33,27,28,25,20,85,74,63,30.33,30.28,30.21,10,10,10,13,3,14,0.00,4,,27
2011-12-27,42,36,29,32,30,24,100,93,82,30.20,29.95,29.76,10,4,0,8,2,,0.18,7,Fog-Rain,269
2011-12-28,48,45,42,41,36,30,100,89,61,29.83,29.71,29.59,10,6,0,16,4,22,0.17,4,Fog-Rain,287
2011-12-29,49,42,35,37,34,30,100,75,50,29.96,29.79,29.62,10,8,0,33,9,44,0.06,5,Fog-Rain,4
2011-12-30,48,40,32,36,31,18,100,71,42,30.03,29.67,29.55,10,7,0,36,12,43,T,4,Fog-Rain,288
2011-12-31,35,30,24,25,23,19,79,66,52,30.47,30.37,30.09,10,10,10,8,4,,0.00,1,,358